Terminal Aerodrome Forecast
Issued by NWS Wilmington, OH

Current Version | Previous Version | Graphics & Text | Print | Product List | Glossary On
Versions: 1 2 3 4 5 6 7 8 9 10 11 12 13 14 15 16 17 18 19 20 21 22 23 24 25 26
000
FTUS41 KILN 241000 AAA
TAFILN
TAF AMD
KILN 241010Z 2410/2506 03010KT P6SM SCT015 OVC035
     FM241100 02009KT P6SM SCT040
     FM241400 02010KT P6SM BKN035
     FM242300 03006KT P6SM SKC=

USA.gov is the U.S. government's official web portal to all federal, state and local government web resources and services.